Location: *
(37.9500°N, 27.3666°E)
Time: 04:18:11
(UTC+00:00)

SL-16 R/B - Pass Details

Date: 24 October 2021
Orbit: 842 x 846 km, 71.0° (Epoch: 03 December)

Event Time Altitude Azimuth Distance (km) Brightness Sun altitude
Rises 16:06:47 0° 202° (SSW) 3,384 5.8 -9.7°
Reaches altitude 10° 16:09:13 10° 203° (SSW) 2,453 5.0 -10.2°
Maximum altitude 16:14:52 86° 290° (WNW) 851 2.3 -11.3°
Drops below altitude 10° 16:20:33 10° 21° (NNE) 2,471 4.4 -12.4°
Sets 16:23:01 0° 22° (NNE) 3,410 5.1 -12.9°
